TimeCDT,TemperatureF,Dew PointF,Humidity,Sea Level PressureIn,VisibilityMPH,Wind Direction,Wind SpeedMPH,Gust SpeedMPH,PrecipitationIn,Events,Conditions,WindDirDegrees,DateUTC
12:09 AM,35.6,28.4,75,29.98,9.0,West,13.8,-,N/A,,Overcast,270,2013-03-12 05:09:00
12:53 AM,36.0,28.0,73,29.99,9.0,West,10.4,-,N/A,,Overcast,270,2013-03-12 05:53:00
1:53 AM,36.0,27.0,70,29.99,9.0,West,10.4,-,N/A,,Overcast,270,2013-03-12 06:53:00
2:27 AM,35.6,26.6,70,29.98,10.0,West,10.4,-,N/A,,Overcast,280,2013-03-12 07:27:00
2:53 AM,36.0,25.0,64,29.98,10.0,West,11.5,-,N/A,,Overcast,270,2013-03-12 07:53:00
3:53 AM,35.1,27.0,72,29.99,9.0,West,9.2,-,N/A,,Overcast,270,2013-03-12 08:53:00
4:08 AM,35.6,28.4,75,29.98,9.0,West,9.2,-,N/A,,Overcast,280,2013-03-12 09:08:00
4:38 AM,35.6,24.8,65,29.98,9.0,West,8.1,-,N/A,,Overcast,280,2013-03-12 09:38:00
4:53 AM,35.1,25.0,67,30.01,9.0,West,9.2,-,N/A,,Overcast,270,2013-03-12 09:53:00
5:06 AM,35.6,24.8,65,29.99,9.0,West,8.1,-,N/A,,Overcast,270,2013-03-12 10:06:00
5:53 AM,33.1,24.1,70,30.02,9.0,West,10.4,-,N/A,,Mostly Cloudy,270,2013-03-12 10:53:00
6:53 AM,30.0,24.1,79,30.04,9.0,SW,3.5,-,N/A,,Clear,230,2013-03-12 11:53:00
7:53 AM,32.0,25.0,75,30.05,6.0,WSW,4.6,-,N/A,,Haze,250,2013-03-12 12:53:00
8:53 AM,35.1,25.0,67,30.07,7.0,West,10.4,-,N/A,,Clear,280,2013-03-12 13:53:00
9:53 AM,36.0,26.1,67,30.10,7.0,West,15.0,-,N/A,,Clear,280,2013-03-12 14:53:00
10:53 AM,37.9,27.0,65,30.09,8.0,West,9.2,-,N/A,,Clear,260,2013-03-12 15:53:00
11:53 AM,41.0,27.0,57,30.11,10.0,West,9.2,-,N/A,,Clear,270,2013-03-12 16:53:00
12:53 PM,43.0,24.1,47,30.09,10.0,WNW,10.4,19.6,N/A,,Clear,300,2013-03-12 17:53:00
1:53 PM,45.0,25.0,46,30.07,10.0,West,13.8,21.9,N/A,,Clear,270,2013-03-12 18:53:00
2:53 PM,46.0,25.0,44,30.06,10.0,West,16.1,-,N/A,,Clear,260,2013-03-12 19:53:00
3:53 PM,46.9,26.1,44,30.06,10.0,West,12.7,19.6,N/A,,Partly Cloudy,260,2013-03-12 20:53:00
4:53 PM,45.0,26.1,48,30.06,10.0,West,15.0,20.7,N/A,,Scattered Clouds,280,2013-03-12 21:53:00
5:53 PM,45.0,26.1,48,30.06,10.0,West,13.8,-,N/A,,Mostly Cloudy,260,2013-03-12 22:53:00
6:53 PM,42.1,30.0,62,30.08,10.0,WNW,16.1,-,N/A,,Mostly Cloudy,300,2013-03-12 23:53:00
7:53 PM,39.9,32.0,73,30.10,10.0,NW,10.4,-,N/A,,Mostly Cloudy,310,2013-03-13 00:53:00
8:53 PM,37.9,30.0,73,30.12,10.0,WNW,12.7,-,N/A,,Clear,290,2013-03-13 01:53:00
9:53 PM,37.9,27.0,65,30.13,10.0,WNW,12.7,-,N/A,,Scattered Clouds,290,2013-03-13 02:53:00
10:53 PM,36.0,24.1,62,30.14,10.0,WNW,13.8,-,N/A,,Clear,290,2013-03-13 03:53:00
11:53 PM,35.1,24.1,64,30.15,10.0,WNW,10.4,-,N/A,,Scattered Clouds,290,2013-03-13 04:53:00